Content
SEND FEEDBACK

Daily
Averages
Monthly
Summary
United States of America

DOCTORTOWN, GEORGIA


Home > North America > United States > Georgia
Elevation: 0 feet     Latitude: 31 39N     Longitude: 081 49W

WEATHER
 
SELECT A DAY
Number of Records: 96,793;   Date Range: 5/13/10 - 6/20/14
 
SHARE

PRINT THIS DATA

[ ← Previous Day ]
WEATHER ALMANAC - FEBRUARY 5, 2013
[ Next Day → ]
[ °C ]   °F
Weather ElementAverageHighLow
Temperature52.8 °F69.8 °F (1:55 pm)33.8 °F (4:15 am)
Dewpoint45.2 °F53.6 °F (12:15 pm)33.8 °F (4:15 am)
Humidity78.6 %100 % (12:35 am)46 % (1:55 pm)
Barometer30.05 in30.11 in (9:35 am)30.00 in (3:55 pm)
Wind Speed3.1 mph12.7 mph (12:55 pm)
Wind Gust16.1 mph (12:15 pm)
Weather ElementAverage
Visibility10 mi
Wind DirectionSSE (142.6 °)

Weather ElementTotal
Precipitation---
Heating Degree Days13.2 (Base 65)
Growing Degree Days1.8 (Base 50)
Averaged from 65 records on February 5, 2013
WEATHER CONDITIONS BREAKOUT
WIND DIRECTION BREAKOUT
WEATHER BY HOUR - FEBRUARY 5, 2013
[ °C ]   °F
Local TimeTemperatureDewpointHumidityBarometerVisibilityWind DirectionWind SpeedGust SpeedPrecipitationEventsConditions
12:35 AM39.2 °F39.2 °F100 %30.06 in10.0 miCalmClear
12:55 AM37.4 °F37.4 °F100 %30.06 in10.0 miCalmClear
1:15 AM37.4 °F37.4 °F100 %30.05 in10.0 miCalmClear
1:35 AM37.4 °F37.4 °F100 %30.05 in10.0 miCalmClear
1:55 AM35.6 °F35.6 °F100 %30.05 in10.0 miCalmClear
2:15 AM37.4 °F37.4 °F100 %30.04 in10.0 miCalmClear
2:35 AM35.6 °F35.6 °F100 %30.03 in10.0 miCalmClear
2:55 AM35.6 °F35.6 °F100 %30.03 in10.0 miCalmClear
3:15 AM35.6 °F35.6 °F100 %30.03 in10.0 miCalmClear
3:35 AM35.6 °F35.6 °F100 %30.04 in10.0 miCalmClear
3:55 AM35.6 °F35.6 °F100 %30.03 in10.0 miCalmClear
4:15 AM33.8 °F33.8 °F100 %30.03 in10.0 miCalmClear
4:35 AM35.6 °F35.6 °F100 %30.03 in10.0 miCalmClear
4:55 AM35.6 °F35.6 °F100 %30.03 in10.0 miCalmClear
5:15 AM35.6 °F35.6 °F100 %30.04 in10.0 miCalmClear
5:35 AM35.6 °F35.6 °F100 %30.03 in10.0 miCalmClear
5:55 AM37.4 °F37.4 °F100 %30.04 in10.0 miCalmClear
6:15 AM37.4 °F37.4 °F100 %30.06 in10.0 miWest (270°)3.5 mphClear
6:35 AM37.4 °F37.4 °F100 %30.06 in10.0 miCalmClear
6:55 AM37.4 °F37.4 °F100 %30.07 in10.0 miCalmClear
7:15 AM37.4 °F37.4 °F100 %30.08 in10.0 miSW (220°)3.5 mphClear
7:35 AM37.4 °F37.4 °F100 %30.07 in10.0 miCalmClear
7:55 AM39.2 °F39.2 °F100 %30.07 in10.0 miCalmClear
8:15 AM41.0 °F41.0 °F100 %30.09 in10.0 miCalmClear
8:35 AM44.6 °F42.8 °F93 %30.10 in10.0 miCalmClear
8:55 AM44.6 °F42.8 °F93 %30.09 in10.0 miCalmClear
9:15 AM46.4 °F44.6 °F93 %30.10 in10.0 miCalmClear
9:35 AM50.0 °F46.4 °F87 %30.11 in10.0 miSW (220°)3.5 mphClear
9:55 AM53.6 °F46.4 °F77 %30.10 in10.0 miSW (220°)3.5 mphClear
10:15 AM53.6 °F46.4 °F77 %30.10 in10.0 miSW (230°)3.5 mphClear
11:15 AM60.8 °F50.0 °F68 %30.10 in10.0 miWSW (240°)4.6 mphOvercast
11:35 AM60.8 °F51.8 °F72 %30.09 in10.0 miWSW (250°)5.8 mphScattered Clouds
11:55 AM62.6 °F51.8 °F68 %30.08 in10.0 miWest (270°)8.1 mphClear
12:15 PM64.4 °F53.6 °F68 %30.07 in10.0 miWest (260°)10.4 mph16.1 mphClear
12:35 PM64.4 °F53.6 °F68 %30.06 in10.0 miWest (260°)8.1 mphClear
12:55 PM68.0 °F51.8 °F56 %30.04 in10.0 miWNW (300°)12.7 mphClear
1:15 PM68.0 °F51.8 °F56 %30.04 in10.0 miWest (280°)6.9 mphClear
1:55 PM69.8 °F48.2 °F46 %30.02 in10.0 miWest (260°)5.8 mphClear
2:15 PM69.8 °F50.0 °F49 %30.02 in10.0 miWest (270°)10.4 mph16.1 mphScattered Clouds
2:35 PM69.8 °F50.0 °F49 %30.01 in10.0 miWest (260°)6.9 mphScattered Clouds
2:55 PM69.8 °F50.0 °F49 %30.01 in10.0 miWSW (240°)4.6 mphScattered Clouds
3:15 PM68.0 °F48.2 °F49 %30.01 in10.0 miWest (260°)6.9 mphMostly Cloudy
3:35 PM68.0 °F50.0 °F52 %30.01 in10.0 miWSW (250°)4.6 mphOvercast
3:55 PM68.0 °F48.2 °F49 %30.00 in10.0 miWSW (240°)6.9 mphOvercast
4:15 PM68.0 °F48.2 °F49 %30.01 in10.0 miWSW (250°)6.9 mphOvercast
4:55 PM68.0 °F46.4 °F46 %30.01 in10.0 miWest (270°)8.1 mphOvercast
5:15 PM68.0 °F48.2 °F49 %30.01 in10.0 miWest (280°)5.8 mphOvercast
5:35 PM66.2 °F48.2 °F52 %30.01 in10.0 miWest (270°)3.5 mphOvercast
5:55 PM64.4 °F50.0 °F59 %30.01 in10.0 miCalmOvercast
6:15 PM64.4 °F50.0 °F59 %30.01 in10.0 miWSW (250°)4.6 mphOvercast
6:35 PM64.4 °F50.0 °F59 %30.01 in10.0 miWSW (250°)4.6 mphOvercast
6:55 PM64.4 °F50.0 °F59 %30.02 in10.0 miWest (270°)4.6 mphOvercast
7:15 PM62.6 °F50.0 °F63 %30.02 in10.0 miWSW (250°)3.5 mphOvercast
7:35 PM62.6 °F50.0 °F63 %30.03 in10.0 miWSW (250°)4.6 mphOvercast
7:55 PM62.6 °F51.8 °F68 %30.03 in10.0 miWSW (240°)4.6 mphOvercast
8:15 PM62.6 °F51.8 °F68 %30.03 in10.0 miCalmOvercast
9:15 PM60.8 °F51.8 °F72 %30.05 in10.0 miWSW (250°)3.5 mphOvercast
9:35 PM60.8 °F53.6 °F77 %30.05 in10.0 miCalmOvercast
9:55 PM60.8 °F53.6 °F77 %30.05 in10.0 miWSW (240°)3.5 mphOvercast
10:15 PM60.8 °F53.6 °F77 %30.06 in10.0 miWSW (240°)4.6 mphOvercast
10:35 PM60.8 °F53.6 °F77 %30.05 in10.0 miSW (230°)3.5 mphOvercast
10:55 PM60.8 °F53.6 °F77 %30.06 in10.0 miSW (230°)3.5 mphOvercast
11:15 PM59.0 °F53.6 °F82 %30.06 in10.0 miWSW (240°)3.5 mphOvercast
11:35 PM59.0 °F53.6 °F82 %30.06 in10.0 miSW (230°)3.5 mphOvercast
11:55 PM60.8 °F53.6 °F77 %30.06 in10.0 miSW (230°)3.5 mphOvercast
Hourly data recorded from KJES, located miles away from Doctortown, Georgia







STORIES FROM OUR PARTNERS